This demonstration page uses our WeatherBlox Daily Observations layout. Learn more.

Left ArrowRight Arrow

44.8408, -93.29828

Hourly Observations for May 1, 2016

Temp ( °F °C ) Dew Point ( °F °C ) Humidity (%) Winds ( mph kmh ) Pressure ( in mb ) Visibility ( mi km ) Precip ( " mm )
12:53 am 00:53 Cloudy 47 8.3 31 -0.6 54 54 NE 10 17 30.13 1020 10 16 0.00 0.00
1:53 am 01:53 Cloudy 46 7.8 31 -0.6 56 56 NNE 7 11 30.13 1020 10 16 0.00 0.00
2:53 am 02:53 Cloudy 44 6.7 32 0 63 63 NNE 6 9 30.14 1021 10 16 0.00 0.00
3:53 am 03:53 Cloudy 43 6.1 32 0 65 65 N 7 11 30.14 1021 10 16 0.00 0.00
4:53 am 04:53 Cloudy 43 6.1 32 0 65 65 N 9 15 30.14 1021 10 16 0.00 0.00
5:53 am 05:53 Cloudy 42 5.6 32 0 68 68 NNE 12 19 30.15 1021 10 16 0.00 0.00
6:53 am 06:53 Cloudy 42 5.6 33 0.6 71 71 NNE 9 15 30.16 1022 10 16 0.00 0.00
7:53 am 07:53 Mostly Cloudy 43 6.1 34 1.1 71 71 NNE 10 17 30.18 1022 10 16 0.00 0.00
8:53 am 08:53 Mostly Cloudy 46 7.8 34 1.1 63 63 NNE 14 22 30.18 1022 10 16 0.00 0.00
9:53 am 09:53 Mostly Cloudy 49 9.4 35 1.7 59 59 NE 14 22 30.18 1022 10 16 0.00 0.00
10:53 am 10:53 Mostly Cloudy 53 11.7 37 2.8 55 55 N 14 22 30.17 1022 10 16 0.00 0.00
11:53 am 11:53 Mostly Cloudy 56 13.3 37 2.8 49 49 NNE 9 15 30.16 1021 10 16 0.00 0.00
12:53 pm 12:53 Mostly Cloudy 57 13.9 37 2.8 47 47 N 10 17 30.14 1021 10 16 0.00 0.00
1:53 pm 13:53 Mostly Cloudy 59 15 36 2.2 42 42 NNE 12 19 30.12 1020 10 16 0.00 0.00
2:53 pm 14:53 Mostly Cloudy 60 15.6 35 1.7 39 39 NE 8 13 30.12 1020 10 16 0.00 0.00
3:53 pm 15:53 Mostly Cloudy 60 15.6 34 1.1 38 38 NE 10 17 30.11 1020 10 16 0.00 0.00
4:53 pm 16:53 Mostly Cloudy 60 15.6 34 1.1 38 38 NE 10 17 30.11 1020 10 16 0.00 0.00
5:53 pm 17:53 Mostly Cloudy 63 17.2 35 1.7 35 35 N 10 17 30.11 1020 10 16 0.00 0.00
6:53 pm 18:53 Cloudy 55 13 36 2 47 47 NNE 14 22 30.03 1017 10 16 0.00 0.00
7:53 pm 19:53 Partly Cloudy 60 15.6 32 0 35 35 NNE 7 11 30.11 1020 10 16 0.00 0.00
8:53 pm 20:53 Mostly Clear 57 13.9 32 0 39 39 N 7 11 30.11 1020 10 16 0.00 0.00
9:53 pm 21:53 Mostly Clear 55 12.8 33 0.6 44 44 N 8 13 30.11 1020 10 16 0.00 0.00
10:53 pm 22:53 Clear 54 12.2 35 1.7 49 49 NNE 12 19 30.11 1020 10 16 0.00 0.00
11:53 pm 23:53 Clear 52 11.1 35 1.7 53 53 N 10 17 30.12 1020 10 16 0.00 0.00

Powered by AerisWeather